Regional Weather Roundup
Issued by NWS

Home | Current Version | Previous Version | Text Only | Print | Product List | Glossary Off
Versions: 1 2 3 4 5 6 7 8 9 10 11 12 13 14 15 16 17 18 19 20 21 22 23 24 25 26 27 28 29 30 31 32 33 34 35 36 37 38 39 40 41 42 43 44 45 46 47 48 49 50

133
ASUS43 KOAX 252010
RWRNE

WEATHER ROUNDUP FOR NEBRASKA
NATIONAL WEATHER SERVICE OMAHA NE
300 PM CDT TUE APR 25 2017

NOTES: SATELLITE DATA IS BEING USED TO AUGMENT CLOUD COVER ABOVE
       12000 FEET.
       "FAIR" INDICATES FEW OR NO CLOUDS BELOW 12,000 FEET WITH NO
       SIGNIFICANT WEATHER AND/OR OBSTRUCTIONS TO VISIBILITY.

  * THESE STATIONS DO NOT REPORT WEATHER SUCH AS RAIN...SNOW OR FOG.

NEZ001>004-019>022-054>056-252100-
NEBRASKA PANHANDLE

CITY           SKY/WX    TMP DP  RH WIND       PRES   REMARKS
SCOTTSBLUFF    LGT RAIN  42  37  82 NE17      29.65R
ALLIANCE       CLOUDY    39  33  79 NE17      29.65R WCI  30
CHADRON        LGT SNOW  35  31  85 NE15      29.74R FOG     WCI  25
KIMBALL        PTSUNNY   57  37  46 N21       29.59R
SIDNEY         MOSUNNY   57  36  45 VRB3      29.56S
$$

NEZ057>060-069>072-079>082-252100-
SOUTHWEST NEBRASKA

CITY           SKY/WX    TMP DP  RH WIND       PRES   REMARKS
NORTH PLATTE   CLOUDY    49  41  74 N12       29.61R
IMPERIAL       PTSUNNY   51  44  77 NE12      29.58F
LEXINGTON      CLOUDY    45  40  83 N10       29.60R
MCCOOK         CLOUDY    50  43  77 N10       29.59R
OGALLALA       CLOUDY    52  42  69 NE9       29.60F
$$

NEZ005>010-023>029-035>040-094-252100-
NORTH CENTRAL NEBRASKA

CITY           SKY/WX    TMP DP  RH WIND       PRES   REMARKS
VALENTINE      CLOUDY    37  31  78 N18       29.70S WCI  27
AINSWORTH      CLOUDY    35  34  99 N20G25    29.68R WCI  23
BROKEN BOW     CLOUDY    41  39  93 N18G26    29.60R
O`NEILL        CLOUDY    38  35  89 N16G25    29.64R WCI  29
ORD            CLOUDY    40  36  86 N20G26    29.61R WCI  30
THEDFORD       CLOUDY    40  37  86 N16       29.65R WCI  32
$$

NEZ041-046>049-061>064-073>077-083>087-252100-
SOUTH CENTRAL NEBRASKA

CITY           SKY/WX    TMP DP  RH WIND       PRES   REMARKS
GRAND ISLAND   CLOUDY    42  39  89 N20       29.58S
AURORA         CLOUDY    43  38  84 N20G26    29.56S
HASTINGS       CLOUDY    43  38  82 N18       29.57R
HEBRON         CLOUDY    49  40  70 N16       29.53R
HOLDREGE       CLOUDY    44  40  86 N13       29.58R
KEARNEY *      CLOUDY    45  37  76 N16       29.59R
YORK           CLOUDY    43  39  87 N17G29    29.56R
$$

NEZ011>018-030>034-042>045-252100-
NORTHEAST NEBRASKA

CITY           SKY/WX    TMP DP  RH WIND       PRES   REMARKS
NORFOLK        CLOUDY    40  37  89 N15       29.58R WCI  32
ALBION         CLOUDY    41  37  85 N15       29.60R
BLAIR          CLOUDY    48  43  82 N13G22    29.51R
FREMONT        CLOUDY    47  41  78 NW9G17    29.55R
TEKAMAH        CLOUDY    48  41  76 N17       29.53R
WAYNE          CLOUDY    43  42  99 N13G24    29.57S
$$

NEZ050>053-065>068-078-088>093-252100-
SOUTHEAST NEBRASKA

CITY           SKY/WX    TMP DP  RH WIND       PRES   REMARKS
LINCOLN        CLOUDY    50  41  71 N21       29.53R
OMAHA EPPLEY   CLOUDY    52  43  71 N17       29.49S
BEATRICE       CLOUDY    54  44  70 N17       29.49S
FALLS CITY     CLOUDY    66  54  65 W5        29.41S
NEBRASKA CITY  CLOUDY    57  43  59 N16       29.46R
PLATTSMOUTH    CLOUDY    53  43  67 N12       29.47S
$$

NEZ044-045-051>053-067-252100-
OMAHA AREA

CITY           SKY/WX    TMP DP  RH WIND       PRES   REMARKS
OMAHA EPPLEY   CLOUDY    52  43  71 N17       29.49S
BLAIR          CLOUDY    48  43  82 N13G22    29.51R
FREMONT        CLOUDY    47  41  78 NW9G17    29.55R
MILLARD        CLOUDY    52  45  76 NW13G18   29.50S
OFFUTT AFB     CLOUDY    52  44  74 NW17      29.47F
PLATTSMOUTH    CLOUDY    53  43  67 N12       29.47S
WAHOO          CLOUDY    49  41  74 N17G24    29.53R
$$




USA.gov is the U.S. government's official web portal to all federal, state and local government web resources and services.